星链-1511 (STARLINK-1511 )

导读 | 豆包AI

STARLINK-1511是美国太空探索技术公司(SpaceX)研发运营的星链(Starlink)系列卫星,于北京时间2020年6月13日发射升空,属于星链低轨卫星互联网星座的组成部分,运行在近地轨道。卫星为Starlink v1.5平台,旨在为全球尤其是偏远地区提供高速卫星互联网接入服务,目前该卫星仍在轨工作,助力SpaceX实现全球覆盖的卫星组网目标。

Basic Information
目录编号:
45767
目录名称:
STARLINK-1511
国际标识:
2020-038AP
轨道中心:
EARTH
卫星名称:
星链-1511
卫星全名:
星链-1511 (STARLINK-1511 )
卫星状态:
已陨落 最后检测时间 2024-12-29
发射日期:
2020-06-13 UTC
国别 :
美国 (US)
星等 :
--
Orbit Information
数据来源 国际轨道数据
星历时间: 2024-12-29T23:31:52+0800
轨道信息已过期485天
半长轴: 6527.534km
偏心率: 0.0007185
轨道倾角: 53.017°
近地点辐角 184.249°
升交点赤经 280.523°
平近点角 268.764°
近地点: 144.708km
远地点: 154.09km
周期: 87.475分钟
每日圈数: 16.461866
Detailed Information
固有亮度:
5
最大亮度:
2.5
卫星平台:
Starlink V1.0
覆盖范围:
全球
运营商:
太空探索技术公司
运营商所在国:
美国
制造商(研发单位):
太空探索技术公司
制造商所在国:
美国
使用方式:
暂无
Satellite Introduction
星链(Starlink)计划是由太空探索技术公司(SpaceX)提出的一个巨型低轨卫星互联网星座项目,计划在2019年至2024年间在太空搭建由约1.2万颗卫星组成的“星链”网络,其中1584颗将部署在地球上空550千米处的近地轨道,并从2020年开始工作。该卫星仍在工作。